1998-067XB

Last updated on Fri Dec 13 2024 00:02:07 GMT+0000 (Coordinated Universal Time)

1 62295U 98067XB 24347.66850216 .00099641 00000+0 16295-2 0 9991 2 62295 51.6360 151.0994 0010083 328.5836 31.4551 15.51664672 533
UTC large
Height (km)
Speed (km/s)
/
Latitude / Longitude
Inclination (degrees)
Orbital Period (minutes)
Azimuth
Elevation
Range (km)
Doppler Factor

Next 0 passes for location: London (51.5072 / 0.1276)

Sorry there are no passes over London.